TimeCDT,TemperatureF,Dew PointF,Humidity,Sea Level PressureIn,VisibilityMPH,Wind Direction,Wind SpeedMPH,Gust SpeedMPH,PrecipitationIn,Events,Conditions,WindDirDegrees,DateUTC
12:15 AM,62.6,55.4,77,29.99,10.0,Calm,Calm,-,N/A,,Clear,0,2012-10-10 05:15:00
12:35 AM,64.4,59.0,83,29.99,10.0,SW,3.5,-,N/A,,Clear,220,2012-10-10 05:35:00
12:55 AM,60.8,55.4,82,29.99,10.0,South,3.5,-,N/A,,Clear,180,2012-10-10 05:55:00
1:15 AM,60.8,55.4,82,29.99,10.0,South,6.9,-,N/A,,Clear,190,2012-10-10 06:15:00
1:35 AM,60.8,55.4,82,29.99,10.0,Calm,Calm,-,N/A,,Clear,0,2012-10-10 06:35:00
1:55 AM,62.6,57.2,82,30.01,10.0,Calm,Calm,-,N/A,,Clear,0,2012-10-10 06:55:00
2:15 AM,62.6,57.2,82,30.02,10.0,Calm,Calm,-,N/A,,Mostly Cloudy,0,2012-10-10 07:15:00
2:35 AM,62.6,59.0,88,30.02,10.0,Calm,Calm,-,N/A,,Overcast,0,2012-10-10 07:35:00
2:55 AM,64.4,59.0,83,30.02,10.0,Calm,Calm,-,N/A,,Overcast,0,2012-10-10 07:55:00
3:15 AM,64.4,59.0,83,30.02,10.0,Calm,Calm,-,N/A,,Overcast,0,2012-10-10 08:15:00
3:35 AM,64.4,59.0,83,30.02,10.0,Calm,Calm,-,N/A,,Overcast,0,2012-10-10 08:35:00
3:55 AM,64.4,60.8,88,30.02,10.0,Calm,Calm,-,N/A,,Overcast,0,2012-10-10 08:55:00
4:15 AM,64.4,59.0,83,30.02,10.0,Calm,Calm,-,N/A,,Overcast,0,2012-10-10 09:15:00
4:35 AM,64.4,60.8,88,30.02,10.0,Calm,Calm,-,N/A,,Mostly Cloudy,0,2012-10-10 09:35:00
4:55 AM,62.6,59.0,88,30.02,10.0,Calm,Calm,-,N/A,,Overcast,0,2012-10-10 09:55:00
5:15 AM,62.6,59.0,88,30.04,10.0,Calm,Calm,-,N/A,,Overcast,0,2012-10-10 10:15:00
5:35 AM,62.6,59.0,88,30.04,10.0,Calm,Calm,-,N/A,,Overcast,0,2012-10-10 10:35:00
5:55 AM,62.6,59.0,88,30.04,10.0,Calm,Calm,-,N/A,,Overcast,0,2012-10-10 10:55:00
6:15 AM,62.6,59.0,88,30.05,10.0,Calm,Calm,-,N/A,,Mostly Cloudy,0,2012-10-10 11:15:00
6:35 AM,62.6,59.0,88,30.06,10.0,Calm,Calm,-,N/A,,Scattered Clouds,0,2012-10-10 11:35:00
6:55 AM,62.6,59.0,88,30.06,7.0,Calm,Calm,-,N/A,,Scattered Clouds,0,2012-10-10 11:55:00
7:15 AM,60.8,55.4,82,30.06,5.0,Calm,Calm,-,N/A,,Scattered Clouds,0,2012-10-10 12:15:00
7:35 AM,60.8,55.4,82,30.07,4.0,Calm,Calm,-,N/A,,Clear,0,2012-10-10 12:35:00
7:55 AM,60.8,55.4,82,30.07,4.0,Calm,Calm,-,N/A,,Clear,0,2012-10-10 12:55:00
8:35 AM,64.4,60.8,88,30.09,5.0,Calm,Calm,-,N/A,,Overcast,0,2012-10-10 13:35:00
8:55 AM,64.4,60.8,88,30.10,1.2,Calm,Calm,-,N/A,,Overcast,0,2012-10-10 13:55:00
9:15 AM,66.2,62.6,88,30.11,1.8,Calm,Calm,-,N/A,,Overcast,0,2012-10-10 14:15:00
9:35 AM,69.8,66.2,88,30.12,5.0,South,3.5,-,N/A,,Scattered Clouds,190,2012-10-10 14:35:00
9:55 AM,69.8,64.4,83,30.13,10.0,SSW,3.5,-,N/A,,Mostly Cloudy,200,2012-10-10 14:55:00
10:15 AM,71.6,64.4,78,30.13,10.0,Calm,Calm,-,N/A,,Overcast,0,2012-10-10 15:15:00
10:35 AM,71.6,64.4,78,30.13,10.0,SSW,4.6,-,N/A,,Mostly Cloudy,200,2012-10-10 15:35:00
10:55 AM,71.6,64.4,78,30.13,10.0,Calm,Calm,-,N/A,,Scattered Clouds,0,2012-10-10 15:55:00
11:15 AM,75.2,64.4,69,30.13,10.0,SSE,5.8,-,N/A,,Mostly Cloudy,160,2012-10-10 16:15:00
11:55 AM,75.2,62.6,65,30.13,10.0,South,3.5,-,N/A,,Mostly Cloudy,170,2012-10-10 16:55:00
12:15 PM,77.0,62.6,61,30.12,10.0,Calm,Calm,-,N/A,,Mostly Cloudy,0,2012-10-10 17:15:00
12:35 PM,77.0,60.8,57,30.12,10.0,SSE,4.6,-,N/A,,Scattered Clouds,160,2012-10-10 17:35:00
12:55 PM,77.0,60.8,57,30.12,10.0,South,3.5,-,N/A,,Scattered Clouds,190,2012-10-10 17:55:00
1:15 PM,78.8,60.8,54,30.11,10.0,SSE,5.8,-,N/A,,Scattered Clouds,160,2012-10-10 18:15:00
1:35 PM,80.6,60.8,51,30.10,10.0,South,5.8,-,N/A,,Scattered Clouds,190,2012-10-10 18:35:00
1:55 PM,80.6,60.8,51,30.09,10.0,SE,5.8,-,N/A,,Scattered Clouds,140,2012-10-10 18:55:00
2:15 PM,78.8,60.8,54,30.07,10.0,SE,9.2,-,N/A,,Mostly Cloudy,140,2012-10-10 19:15:00
2:35 PM,80.6,60.8,51,30.07,10.0,SSE,10.4,-,N/A,,Mostly Cloudy,160,2012-10-10 19:35:00
2:55 PM,78.8,60.8,54,30.06,10.0,SSE,6.9,-,N/A,,Scattered Clouds,160,2012-10-10 19:55:00
3:15 PM,80.6,60.8,51,30.05,10.0,South,5.8,-,N/A,,Scattered Clouds,170,2012-10-10 20:15:00
3:35 PM,80.6,59.0,48,30.05,10.0,South,8.1,-,N/A,,Scattered Clouds,170,2012-10-10 20:35:00
3:55 PM,80.6,59.0,48,30.05,10.0,SE,5.8,-,N/A,,Mostly Cloudy,140,2012-10-10 20:55:00
4:15 PM,82.4,59.0,45,30.04,10.0,SE,6.9,-,N/A,,Mostly Cloudy,130,2012-10-10 21:15:00
4:35 PM,82.4,59.0,45,30.04,10.0,South,8.1,-,N/A,,Scattered Clouds,190,2012-10-10 21:35:00
4:55 PM,80.6,59.0,48,30.04,10.0,SE,4.6,-,N/A,,Scattered Clouds,140,2012-10-10 21:55:00
5:15 PM,80.6,59.0,48,30.04,10.0,SSE,5.8,-,N/A,,Scattered Clouds,150,2012-10-10 22:15:00
5:35 PM,80.6,59.0,48,30.04,10.0,South,4.6,-,N/A,,Mostly Cloudy,190,2012-10-10 22:35:00
5:55 PM,80.6,60.8,51,30.04,10.0,South,4.6,-,N/A,,Scattered Clouds,190,2012-10-10 22:55:00
6:15 PM,80.6,60.8,51,30.04,10.0,South,3.5,-,N/A,,Scattered Clouds,170,2012-10-10 23:15:00
6:35 PM,80.6,60.8,51,30.05,10.0,Calm,Calm,-,N/A,,Clear,0,2012-10-10 23:35:00
6:55 PM,80.6,64.4,58,30.05,10.0,Calm,Calm,-,N/A,,Clear,0,2012-10-10 23:55:00
7:15 PM,77.0,62.6,61,30.06,10.0,Calm,Calm,-,N/A,,Clear,0,2012-10-11 00:15:00
7:35 PM,77.0,60.8,57,30.07,10.0,Calm,Calm,-,N/A,,Clear,0,2012-10-11 00:35:00
7:55 PM,73.4,60.8,65,30.07,10.0,Calm,Calm,-,N/A,,Clear,0,2012-10-11 00:55:00
8:15 PM,73.4,62.6,69,30.08,10.0,Calm,Calm,-,N/A,,Mostly Cloudy,0,2012-10-11 01:15:00
8:35 PM,75.2,62.6,65,30.09,10.0,NNE,3.5,-,N/A,,Mostly Cloudy,30,2012-10-11 01:35:00
8:55 PM,77.0,62.6,61,30.09,10.0,Calm,Calm,-,N/A,,Scattered Clouds,0,2012-10-11 01:55:00
9:15 PM,75.2,62.6,65,30.09,10.0,Calm,Calm,-,N/A,,Clear,0,2012-10-11 02:15:00
9:35 PM,75.2,62.6,65,30.09,10.0,Calm,Calm,-,N/A,,Clear,0,2012-10-11 02:35:00
9:55 PM,75.2,62.6,65,30.10,10.0,Calm,Calm,-,N/A,,Scattered Clouds,0,2012-10-11 02:55:00
10:15 PM,75.2,62.6,65,30.10,10.0,Calm,Calm,-,N/A,,Scattered Clouds,0,2012-10-11 03:15:00
10:35 PM,73.4,62.6,69,30.09,10.0,Calm,Calm,-,N/A,,Scattered Clouds,0,2012-10-11 03:35:00
10:55 PM,69.8,62.6,78,30.11,10.0,Calm,Calm,-,N/A,,Mostly Cloudy,0,2012-10-11 03:55:00
11:15 PM,71.6,64.4,78,30.11,10.0,SE,3.5,-,N/A,,Scattered Clouds,140,2012-10-11 04:15:00
11:35 PM,71.6,64.4,78,30.11,10.0,SE,3.5,-,N/A,,Scattered Clouds,130,2012-10-11 04:35:00
11:55 PM,75.2,68.0,78,30.11,10.0,SSE,8.1,-,N/A,,Mostly Cloudy,160,2012-10-11 04:55:00